"Pseudo-MPEC" for P10U9zx

Created 2019 Nov 9 9:07:21 UT using Find_Orb

Click here for an explanation of pseudo-MPECs

 
 Astrometry: 
     P10U9zx  C2019 11 05#rZ%@Astrometry:$9:):7V13lHnpEo.UdK_=8twolWtgqxCe9L%F51
     P10U9zx  C2019 11 05*)6qO9fF8[.myYSpK'm@tK;;vm8a`egjHWQp(wc=,V=?c3EE'e?,F51
     P10U9zx  C2019 11 05Z4\NLDhkeY9vOkmWBVN(fk*YGO:fH!\\)bZqTy*GvYlijiy?q?0MF51
     P10U9zx  C2019 11 09.24277 04 05 46.37 +04 40 32.2    ~B997 18.0 GVNEOCP703
     P10U9zx  C2019 11 09.25091 04 06 05.25 +04 44 12.9    ~B997 18.1 GVNEOCP703
     P10U9zx  C2019 11 09.25498 04 06 14.66 +04 46 02.5    ~B997 18.2 GVNEOCP703
     P10U9zx  C2019 11 09.27752 04 07 09.61 +04 56 47.8    ~B997 17.6 GVNEOCP703
     P10U9zx  C2019 11 09.27781 04 07 10.28 +04 56 56.1    ~B997 17.8 GVNEOCP703
     P10U9zx  C2019 11 09.27810 04 07 10.98 +04 57 04.6    ~B997 18.1 GVNEOCP703
     P10U9zx  C2019 11 09.27839 04 07 11.73 +04 57 12.6    ~B997 17.6 GVNEOCP703
     P10U9zx KC2019 11 09#CNRredacted;];T7pjtyS.paclick.U.*4UM%DDoE.CIhereRqUH36
     P10U9zx KC2019 11 09if0'6U5-c`nq;WUO2(.VbR%.aH1mt@6:PqQ+L@8jafor;uq%*S3:H36
     P10U9zx KC2019 11 09f?$'Bit/d0:\aE.explanation(7RbRn^JecTrvHhhFC05qy669rH36
     P10U9zx KC2019 11 09R8Z)Yv\'Z`FC;t=aj+-hoC9OBO@5GrM(,0;(FBc-h``4?G%%UmtxH36
     P10U9zx  C2019 11 09.33560804 09 41.00 +05 27 05.1    ~B997 17.2 GVNEOCPH01
     P10U9zx  C2019 11 09.34249304 10 01.26 +05 31 04.6    ~B997 17.1 GVNEOCPH01
     P10U9zx  C2019 11 09.35539804 10 40.47 +05 38 47.2    ~B997 17.2 GVNEOCPH01
     P10U9zx  C2019 11 09.36320104 11 04.99 +05 43 35.6    ~B997 17.1 GVNEOCPH01

Station data:
(703) Catalina Sky Survey  (N32.417006 W110.732640)  US/Arizona.  Observers
   T. A. Pruyne, B. M. Africano, E. J. Christensen, G. A. Farneth, D. C.
   Fuls, A. R. Gibbs, A. D. Grauer, H. Gröller, J. A. Johnson, R. A.
   Kowalski, S. M. Larson, G. J. Leonard, D. Rankin, R. L. Seaman, F. C.
   Shelly. 0.68 m Schmidt + 10K CCD.
(F51) Pan-STARRS 1, Haleakala  (N20.707235 W156.255910)  US/Hawaii.
   Observers N. Primak, A. Schultz, S. Watters, J. Thiel, T. Goggia. Measurer
   PS1 Science Consortium. 1.8-m Ritchey-Chrétien + CCD.
(H01) Magdalena Ridge Observatory, Socorro  (N33.984833 W107.189333)  US/New
   Mexico.  Observers W. H. Ryan, E. V. Ryan. Measurer W. H. Ryan. 2.4-m
   f/8.9 reflector + CCD.
(H36) Sandlot Observatory, Scranton  (N38.797693 W95.706400)  US/Kansas.
   Observer G. Hug. 0.56-m reflector + CCD.

Orbital elements:  P10U9zx
   Perihelion 2019 Dec 31.776986 +/- 0.0262 TT = 18:38:51 (JD 2458849.276986)
Epoch 2019 Nov  9.0 TT = JDT 2458796.5   Earth MOID: 0.0004   Ve: 0.0404
M 329.60678358 +/- 0.06             (J2000 ecliptic)          AutoNEOCP
n   0.57588010 +/- 0.000898         Peri.   92.59385 +/- 0.0044
a   1.43080790 +/- 0.00149          Node    46.94273 +/- 0.00020
e   0.5699093 +/- 0.000605          Incl.   11.61454 +/- 0.012
P   1.71/625.12d           H 27.6   G  0.15   U  8.0  
q 0.61537708 +/- 0.000226    Q 2.24623872 +/- 0.0032
From 18 observations 2019 Nov. 5-9; mean residual 0".96
Residuals in arcseconds: 
191105 F51  .03-  .02-    191109 703  1.4+  .74+    191109 H36  .75+  .26+    
191105 F51  .02+  .07+    191109 703  .60+  .52+    191109 H36  .07+  .28+    
191105 F51  .08-  .11+    191109 703  .27+  .50+    191109 H01  .48-  .11-    
191109 703  .03+  1.1-    191109 703  .67+  .02-    191109 H01  .75-  .30-    
191109 703  .41-  .54-    191109 H36  1.7+  1.5+    191109 H01  .94-  .32-    
191109 703  2.9-  2.8-    191109 H36  1.1+  .87+    191109 H01  1.1-  .43-    

Ephemerides (geocentric):
Date (UTC) HH   RA              Dec         delta   r     elong  mag " sig PA
---- -- -- --  -------------   -----------  ------ ------ -----  --- ---- ---
2019 11 09 09  04 12 00.686   +06 02 04.02  939327 0.9964 158.5 17.6 1.29  16
2019 11 09 10  04 14 50.812   +06 31 40.02  876212 0.9960 158.2 17.5 1.86  27
2019 11 09 11  04 18 07.713   +07 05 46.79  813319 0.9956 157.7 17.4 2.66  34
2019 11 09 12  04 21 58.152   +07 45 29.27  750704 0.9952 157.2 17.2 3.76  39
2019 11 09 13  04 26 31.333   +08 32 13.96  688443 0.9948 156.5 17.0 5.28  43
2019 11 09 14  04 32 00.084   +09 27 58.20  626643 0.9943 155.7 16.8 7.39  46
2019 11 09 15  04 38 42.774   +10 35 23.98  565456 0.9939 154.5 16.7 10.4  48
2019 11 09 16  04 47 06.544   +11 58 18.65  505106 0.9935 152.9 16.5 14.7  50
2019 11 09 17  04 57 52.925   +13 42 05.25  445937 0.9931 150.7 16.3 21.1  52
2019 11 09 18  05 12 08.002   +15 54 22.19  388491 0.9927 147.7 16.0 30.8  54
2019 11 09 19  05 31 41.205   +18 45 34.73  333664 0.9923 143.3 15.8 46.1  56
2019 11 09 20  05 59 39.352   +22 27 45.61  282992 0.9918 136.9 15.7 70.2  59
2019 11 09 21  06 41 17.165   +27 05 41.81  239140 0.9914 127.6 15.5  107  64
2019 11 09 22  07 43 56.076   +32 04 37.32  206517 0.9910 114.3 15.6  156  72
2019 11 09 23  09 10 28.812   +35 18 00.28  190982 0.9906  97.2 16.0  199  85
2019 11 10 00  10 44 09.349   +34 21 21.06  196636 0.9902  79.2 16.9  203  98
2019 11 10 01  11 59 31.774   +30 10 12.04  221862 .98976  63.8 18.0  173 108
2019 11 10 02  12 50 55.293   +25 24 11.17  261036 .98934  52.5 19??  136 114
2019 11 10 03  13 25 01.515   +21 20 40.15  308884 .98893  44.6 20??  106 118
2019 11 10 04  13 48 21.662   +18 09 56.21  361975 .98851  39.2 21?? 83.7 119
2019 11 10 05  14 05 01.159   +15 42 34.81  418312 .98809  35.3 22?? 68.3 121
2019 11 10 06  14 17 23.351   +13 47 37.01  476742 .98768  32.5 23?? 57.2 121
2019 11 10 07  14 26 53.264   +12 16 24.72  536579 .98726  30.4 23?? 49.1 122
2019 11 10 08  14 34 23.247   +11 02 45.44  597398 .98684  28.7 24?? 43.0 122
2019 11 10 09  14 40 26.847   +10 02 16.22  658927 .98643  27.5 24?? 38.3 122
2019 11 10 10  14 45 26.381   +09 11 50.35  720983 .98601  26.5 25?? 34.7 122
2019 11 10 11  14 49 37.194   +08 29 13.37  783440 .98560  25.7 25?? 31.8 123
2019 11 10 12  14 53 10.150   +07 52 46.77  846209 .98518  25.0 25?? 29.4 123
2019 11 10 13  14 56 13.138   +07 21 17.18  909225 .98476  24.4 26?? 27.4 123
2019 11 10 14  14 58 52.017   +06 53 48.98  972440 .98435  24.0 26?? 25.8 123
2019 11 10 15  15 01 11.222   +06 29 39.38  .00692 .98393  23.6 26?? 24.4 123
2019 11 10 16  15 03 14.172   +06 08 15.00  .00735 .98352  23.2 26?? 23.2 123
2019 11 10 17  15 05 03.539   +05 49 09.42  .00777 .98310  23.0 27?? 22.2 123
2019 11 10 18  15 06 41.446   +05 32 01.53  .00820 .98268  22.7 27?? 21.4 123
2019 11 10 19  15 08 09.595   +05 16 34.23  .00863 .98227  22.5 27?? 20.6 123
2019 11 10 20  15 09 29.369   +05 02 33.55  .00905 .98185  22.3 27?? 19.9 123
2019 11 10 21  15 10 41.903   +04 49 47.97  .00948 .98144  22.1 27?? 19.3 123
2019 11 10 22  15 11 48.136   +04 38 07.92  .00991 .98102  21.9 27?? 18.8 123
2019 11 10 23  15 12 48.851   +04 27 25.36  .01034 .98060  21.8 28?? 18.3 123
2019 11 11 00  15 13 44.709   +04 17 33.52  .01076 .98019  21.7 28?? 17.8 124
2019 11 11 01  15 14 36.268   +04 08 26.64  .01119 .97977  21.6 28?? 17.4 124
2019 11 11 02  15 15 24.004   +03 59 59.80  .01162 .97936  21.5 28?? 17.1 124
2019 11 11 03  15 16 08.326   +03 52 08.75  .01205 .97894  21.4 28?? 16.8 124
2019 11 11 04  15 16 49.586   +03 44 49.85  .01248 .97853  21.3 28?? 16.5 124
2019 11 11 05  15 17 28.090   +03 37 59.91  .01291 .97811  21.2 28?? 16.2 124
2019 11 11 06  15 18 04.105   +03 31 36.14  .01334 .97769  21.1 28?? 15.9 124
2019 11 11 07  15 18 37.864   +03 25 36.13  .01377 .97728  21.0 28?? 15.7 124
2019 11 11 08  15 19 09.570   +03 19 57.72  .01420 .97686  21.0 28?? 15.5 124